Location: Unnamed
(51.8936°N, 11.0665°E)
Time: 18:40:48
(UTC+02:00)

NO-84 - Visible Passes

Search period start: 25 September 2021 00:00
Search period end: 05 October 2021 00:00
Orbit: 295 x 376 km, 55.0° (Epoch: 22 September)

Date Brightness Start Highest point End Pass type
(mag) Time Alt. Az. Time Alt. Az. Time Alt. Az.
25 Sep ? 04:40:49 11° SE 04:40:49 11° SE 04:40:56 10° SE visible
25 Sep ? 06:12:07 10° SW 06:12:07 10° SW 06:12:14 10° SW visible
01 Oct ? 19:55:35 10° SSE 19:56:22 12° SE 19:56:22 12° SE visible
02 Oct ? 20:13:48 10° SSW 20:15:57 25° SSE 20:15:57 25° SSE visible
03 Oct ? 20:32:57 10° SW 20:35:15 51° S 20:35:15 51° S visible
04 Oct ? 19:18:39 10° SSW 19:20:46 21° SE 19:22:56 10° E visible
04 Oct ? 20:52:25 10° WSW 20:54:20 41° W 20:54:20 41° W visible
